Вернуться в каталог

ONEWEB-0107

АктивенСвязьPO
NORAD 48048·PAYLOAD·🇬🇧 United Kingdom

Запущен Mar 25, 2021 с Vostochny Cosmodrome

Loading…

Ближайшие Пролёты (ближайшие 24 часа)

TLE

СвежийSource: CelesTrak SupGP

Эпоха: Sep 14, 2026, 15:13 UTC

1 48048C 21025G   26257.63418241 -.00000280  00000+0 -76673-3 0  2575
2 48048  87.8923 302.4223 0001757  98.5969   0.2426 13.13469956    17

Отслеживайте ONEWEB-0107 в реальном времени с AllMySat

Download on the App Store